Location: *
(50.8160°S, 176.0219°W)
Time: 22:45:25
(UTC+00:00)

ATLAS 3B R/B - Pass Details

Date: 19 May 2026
Orbit: 937 x 1256 km, 63.8° (Epoch: 6 June)

Event Time Altitude Azimuth Distance (km) Brightness Sun altitude
Exits shadow 15:17:03 31° 151° (SSE) 1,646 3.9 -37.7°
Drops below altitude 10° 15:22:13 10° 98° (E) 2,765 5.6 -36.9°
Sets 15:25:12 0° 88° (E) 3,752 6.5 -36.5°
